RH
21 17 20 29 30 27 27 29 30 29 26 23 16 14 17 21 16 12 6 4 4 7 9 11 12 13 15 17 20 21 19 15 14 15 16 16 17 17 17 17 17 17 16 16
21 27 30 31 30 23 20 26 29 27 18 15 17 16 21 20 16 21 18 6 7 9 11 12 14 14 17 18 20 23 20 18 17 16 16 16 17 17 18 18 19 19 20 20
27 29 30 31 27 18 19 22 27 18 15 16 16 18 17 14 16 16 15 8 7 10 12 12 14 16 18 20 19 22 19 18 18 18 17 16 17 19 20 21 22 22 22 22
32 31 29 21 20 17 19 22 23 16 17 16 17 21 16 17 16 16 16 17 11 8 10 10 12 17 20 23 20 18 19 20 21 22 22 20 20 22 23 25 26 27 26 26
28 30 30 24 20 18 16 19 20 18 18 17 15 22 15 14 12 8 11 13 17 10 8 8 9 12 14 18 19 19 19 19 22 26 28 24 22 24 26 27 29 32 32 32
30 29 30 28 22 18 17 18 18 19 20 20 12 16 14 10 10 13 14 14 16 16 11 11 16 17 19 23 20 19 21 21 23 26 30 25 22 24 25 28 33 35 36 36
30 27 26 25 21 18 18 18 18 21 41 30 16 22 14 11 14 14 14 17 18 17 15 14 15 23 28 33 32 30 26 25 25 29 33 30 28 29 32 35 36 37 37 37
28 25 21 21 20 19 18 16 18 22 58 40 33 31 20 16 16 15 12 18 21 19 19 15 13 22 30 36 38 40 36 35 34 35 36 34 36 40 40 38 40 40 39 40
24 25 21 18 17 18 17 18 17 26 42 46 23 18 18 20 21 17 15 15 19 20 23 23 25 29 35 41 43 42 43 49 47 40 42 43 52 62 68 52 44 43 42 45
18 17 16 15 15 16 16 16 24 26 42 44 26 21 12 14 11 13 19 22 22 22 22 22 20 31 38 44 46 46 48 55 56 48 49 54 64 73 79 70 48 43 44 50
27 22 22 18 16 14 18 22 23 26 28 27 54 15 15 17 18 18 16 19 20 17 14 18 21 32 40 44 47 46 50 57 60 60 59 64 73 77 82 72 48 43 49 52
26 25 26 24 22 21 20 23 25 25 24 29 40 24 13 11 9 13 22 21 22 22 21 21 27 33 39 45 48 52 58 62 64 66 71 75 79 81 83 59 45 50 55 59
22 24 24 22 20 18 17 14 16 26 32 33 35 18 13 12 13 16 24 26 24 21 22 25 30 38 43 48 51 56 62 64 67 72 82 84 86 86 64 46 53 58 62 58
23 22 19 16 13 16 17 16 15 17 30 27 25 12 9 11 15 17 17 15 11 22 30 33 36 43 46 50 54 60 64 67 73 79 84 86 87 58 49 57 61 64 58 43
27 30 21 19 18 17 17 17 19 21 20 26 14 22 6 12 16 18 18 21 19 23 29 31 38 43 45 50 58 62 66 73 80 84 90 75 50 52 60 64 66 59 37 13
35 22 28 39 38 28 21 17 12 10 9 10 12 10 9 14 17 19 19 18 22 26 39 40 42 46 51 58 63 68 74 80 84 78 54 48 55 62 69 66 60 31 10 8
31 30 44 39 37 31 30 40 25 18 19 16 14 13 15 16 19 20 24 19 23 33 41 45 50 54 58 64 70 75 80 78 59 47 48 57 66 72 80 54 20 8 8 7
46 48 39 33 33 43 36 35 27 22 17 16 17 17 20 15 18 21 27 32 38 40 45 52 57 63 68 70 72 73 65 48 47 53 63 72 80 74 41 14 8 7 6 3
48 45 46 50 45 45 43 40 25 22 20 20 21 20 18 16 19 26 32 38 44 55 60 62 64 64 64 65 59 55 58 54 60 68 72 76 61 31 11 7 7 4 3 3
53 54 50 50 47 48 24 27 27 22 21 20 25 21 16 18 26 40 41 43 47 52 56 56 57 54 53 60 65 70 63 66 72 70 62 56 23 8 6 5 3 2 3 4
47 52 54 54 55 46 41 32 30 29 24 21 18 16 15 18 39 45 46 48 49 51 52 44 41 55 63 72 74 65 70 75 68 61 46 14 6 5 4 3 2 3 5 12
45 47 50 59 66 57 30 28 30 25 21 23 21 21 19 20 36 42 38 39 44 44 44 48 55 64 71 66 69 76 76 64 57 30 9 6 6 4 3 3 4 8 11 14
50 47 45 44 29 26 24 24 24 29 27 22 22 24 24 22 26 26 26 28 32 45 49 56 59 59 64 74 77 72 62 50 22 8 6 6 4 3 3 4 6 9 13 15
50 47 47 46 42 34 34 32 34 27 23 23 26 28 28 27 27 29 33 38 42 48 54 56 61 72 81 79 69 61 42 16 7 7 5 3 3 3 3 5 9 12 17 27
55 55 53 51 48 44 37 38 27 24 24 28 30 31 30 29 33 38 42 45 49 55 62 71 80 83 75 67 59 34 9 7 7 4 3 3 3 3 4 8 15 20 24 36
66 71 63 54 48 42 43 36 25 24 28 32 33 35 35 36 39 42 46 52 60 67 76 83 80 71 66 52 20 7 8 6 4 3 3 3 4 6 14 18 21 37 44 50
Wind_Speed
7 6 15 18 9 5 3 8 7 4 5 9 8 9 8 10 10 7 7 5 5 7 8 6 4 4 5 8 9 11 13 15 16 16 15 15 15 17 17 17 17 17 18 20
10 14 15 10 2 3 6 5 9 7 6 8 9 10 13 16 11 11 9 9 7 8 7 5 4 4 5 8 10 11 13 15 16 16 17 16 16 16 17 18 18 18 19 19
12 17 16 12 3 4 2 2 10 3 6 7 9 19 18 14 12 13 11 10 12 9 8 5 4 4 6 8 11 13 16 17 18 17 16 17 17 18 18 19 20 20 21 22
10 12 13 11 11 5 7 8 10 5 5 5 6 7 12 11 14 16 15 13 10 8 7 4 4 6 8 9 12 14 17 17 18 19 18 18 17 17 18 19 21 23 24 26
12 15 14 13 13 8 8 12 11 7 6 7 10 8 13 10 15 11 12 14 12 11 9 6 5 8 10 11 14 16 18 20 20 19 18 16 16 16 17 20 23 26 27 29
14 15 14 13 14 11 11 13 9 7 8 7 18 18 12 12 4 5 7 10 12 13 13 10 9 10 9 12 15 17 19 21 22 21 19 18 20 21 22 24 26 27 29 31
18 15 16 14 16 14 14 13 3 2 2 8 6 8 21 16 11 11 12 11 11 10 12 12 10 11 12 14 17 19 20 22 23 23 21 20 22 23 24 27 29 31 32 33
17 9 15 16 17 13 16 15 9 5 3 4 7 9 7 6 9 11 13 14 17 16 14 13 12 14 16 19 22 25 26 24 25 23 21 21 24 26 28 30 34 35 35 36
17 16 14 17 17 15 13 14 14 9 5 4 9 17 21 23 19 14 13 16 17 17 19 18 19 19 20 23 25 29 30 28 28 28 24 22 25 28 32 35 37 38 38 38
10 6 14 17 16 16 15 12 8 8 2 4 7 13 15 10 15 14 11 12 15 18 22 22 21 23 25 28 29 33 33 31 30 32 30 29 30 32 36 40 41 41 41 41
11 10 4 12 14 17 18 18 12 8 6 5 1 5 7 8 10 8 9 11 12 15 16 19 23 27 30 32 34 35 35 33 32 33 33 33 34 37 40 44 43 43 43 44
14 5 9 10 11 12 17 20 20 14 7 9 7 15 23 20 20 18 14 15 15 15 14 17 25 32 34 35 37 38 35 33 34 35 35 35 37 41 45 45 44 45 46 49
14 8 4 4 13 20 18 20 21 24 25 17 8 11 13 19 21 17 15 15 20 25 25 22 25 34 35 37 38 36 35 36 36 36 36 38 41 45 45 44 45 48 50 53
10 13 14 12 4 4 6 9 16 21 20 26 31 39 32 33 31 29 28 28 27 22 22 20 23 31 34 36 37 37 36 36 36 37 39 43 46 44 43 45 49 51 54 54
15 14 14 14 16 19 20 19 19 21 23 27 32 33 31 31 32 33 29 23 23 20 19 21 24 28 31 34 35 36 37 36 37 40 43 45 44 43 45 49 52 55 54 52
15 11 10 13 14 18 22 22 24 26 27 30 31 32 26 24 25 22 20 24 27 27 20 20 23 26 30 32 34 35 35 37 38 42 44 42 43 46 49 53 56 53 52 53
16 14 10 9 11 15 17 25 24 21 21 22 23 19 17 18 21 20 17 15 13 14 17 20 22 25 28 31 32 34 36 38 42 41 42 43 46 49 55 54 52 52 54 55
15 11 9 6 9 1 13 12 16 18 16 16 19 21 19 16 17 15 8 4 9 14 17 18 21 24 26 29 33 36 39 40 40 40 42 46 51 54 52 52 53 55 56 57
13 11 7 5 8 17 23 20 14 15 21 19 15 16 16 14 12 10 8 8 10 13 15 19 22 25 29 32 35 36 38 38 39 41 46 52 53 52 53 54 56 56 56 56
18 17 16 11 4 5 2 4 6 11 20 11 11 13 11 9 10 11 10 11 14 18 20 22 25 28 30 32 34 36 36 38 41 46 49 51 51 53 54 55 56 55 55 55
13 16 19 18 11 11 15 15 15 7 7 7 12 12 12 9 6 10 12 14 17 19 21 23 25 27 30 32 34 35 38 43 47 49 50 50 51 53 54 54 54 54 54 53
13 10 10 13 11 12 6 8 7 6 7 15 16 14 11 7 9 13 14 15 18 20 21 22 25 29 30 31 33 39 44 45 48 48 50 52 53 53 54 55 55 53 53 53
19 22 16 13 6 7 6 8 10 14 15 17 16 13 11 11 13 15 16 17 18 18 21 24 27 29 30 34 40 42 44 46 48 50 52 53 54 54 54 54 54 54 52 49
20 20 19 19 18 16 16 14 12 15 18 17 14 13 13 14 15 15 15 16 17 20 22 25 27 29 35 39 41 43 46 49 50 52 52 53 54 54 54 54 53 51 46 43
19 18 20 24 23 20 17 14 14 16 15 12 13 13 13 13 14 14 15 17 19 21 23 26 29 34 37 41 44 46 48 49 51 52 53 54 55 55 55 52 47 43 40 40
28 27 25 25 18 17 15 15 16 14 13 12 13 14 15 15 14 14 16 18 21 24 26 30 33 37 40 43 45 47 49 51 52 53 55 55 55 52 49 46 43 41 41 40
Wind_Direction
204 192 170 131 110 49 321 281 274 215 230 251 267 256 268 279 268 278 274 257 233 228 225 232 268 295 326 331 345 347 347 350 352 357 1 0 356 354 352 352 351 347 343 341
168 163 152 178 270 22 342 281 213 209 247 246 267 276 275 266 265 274 283 272 257 238 230 233 259 285 317 318 328 333 335 340 344 348 351 351 350 349 350 349 346 341 341 336
158 172 184 186 241 323 297 237 201 239 215 241 267 281 269 261 254 261 265 256 246 226 220 234 279 321 327 322 317 323 328 331 334 339 341 340 344 348 349 342 341 340 337 334
206 200 195 191 213 219 206 207 197 227 227 247 254 285 270 271 267 257 250 252 257 246 237 241 274 304 315 318 318 319 320 322 325 329 335 337 341 341 338 337 340 340 339 335
199 203 211 206 217 191 220 205 218 223 241 275 254 258 277 271 258 264 264 249 249 255 244 243 271 297 310 311 312 319 321 321 320 325 325 318 320 326 333 334 336 338 336 333
210 208 216 220 222 210 191 180 186 218 248 267 274 232 275 273 306 232 257 251 240 251 258 256 261 272 303 307 307 315 318 319 318 320 319 306 314 321 326 331 332 330 329 327
211 213 217 217 218 210 194 194 202 262 286 231 194 267 262 286 269 260 282 275 258 255 256 259 272 281 290 300 304 308 311 320 321 320 317 307 315 317 323 327 327 324 323 321
209 207 219 219 218 221 219 226 210 210 195 274 256 245 264 255 270 280 272 244 238 245 261 268 273 280 284 291 298 302 307 317 322 320 315 309 312 317 320 320 321 319 318 317
206 215 228 226 223 221 229 231 235 234 251 281 245 261 269 273 274 279 276 271 265 258 257 264 263 268 275 282 288 293 299 308 318 319 318 314 315 318 319 315 315 314 314 313
212 195 219 224 225 225 227 224 206 201 160 256 261 260 255 278 285 282 283 290 288 286 278 274 274 273 271 270 279 286 293 299 308 315 316 314 313 314 313 314 311 310 310 311
219 216 213 213 223 230 228 226 221 213 226 193 264 252 275 301 316 295 282 284 286 284 275 272 271 266 263 267 273 280 284 291 299 304 308 307 307 306 305 309 306 306 306 308
217 236 243 244 248 244 237 237 238 234 239 228 250 266 280 290 295 288 285 288 292 292 283 262 255 260 261 265 270 275 279 285 293 297 298 297 296 299 303 304 303 304 305 308
215 224 241 266 255 253 246 248 244 244 250 257 242 259 276 294 299 289 280 282 288 293 292 281 255 252 258 263 268 273 279 285 290 289 285 289 293 298 301 301 302 304 307 310
213 234 246 247 258 284 264 271 257 252 251 259 259 278 286 286 287 289 285 286 293 286 289 281 262 255 259 264 270 273 280 282 281 282 284 291 296 298 300 302 304 307 310 310
220 255 257 258 263 271 276 276 273 266 271 264 284 286 292 295 297 293 292 285 283 284 282 284 272 268 272 273 273 277 278 274 276 284 290 295 296 299 303 306 308 309 309 309
241 235 253 273 276 276 273 275 275 275 277 278 283 288 304 296 289 287 283 279 273 280 270 271 268 268 270 270 271 269 269 276 283 290 294 295 299 303 306 307 307 307 308 309
233 241 260 256 280 277 276 281 273 276 281 289 283 300 300 300 289 287 294 284 278 275 273 271 269 270 271 268 267 272 278 285 293 294 296 299 302 304 305 305 306 307 308 309
253 257 253 273 278 287 280 282 269 276 284 287 295 302 300 303 301 301 315 327 278 286 288 278 270 264 266 272 277 282 288 292 295 297 299 302 304 303 303 305 307 309 311 312
240 242 257 245 225 278 286 276 262 276 286 299 302 307 312 313 310 314 318 318 262 267 268 262 264 269 273 278 283 289 295 297 297 299 301 302 301 304 307 309 311 311 311 310
238 249 246 242 241 241 282 276 292 306 305 305 312 316 323 332 324 317 300 274 254 253 259 266 272 277 283 287 290 294 296 296 297 301 301 304 306 309 312 312 311 310 309 308
228 240 241 246 242 263 268 271 285 280 308 324 326 321 317 318 295 281 284 275 264 261 269 278 284 287 290 292 294 295 296 301 302 304 307 308 310 311 310 309 309 308 307 305
250 242 235 229 230 266 288 275 253 289 281 311 314 311 309 293 272 272 273 269 269 273 281 289 292 293 294 295 297 300 303 303 306 308 308 309 310 311 312 310 308 308 307 306
247 254 259 244 248 259 275 292 290 299 300 305 307 301 290 275 267 271 280 284 284 287 293 295 295 295 295 297 301 302 304 306 307 309 310 311 312 313 312 311 309 308 310 312
262 264 245 252 262 263 280 287 292 297 298 297 293 289 287 283 287 290 289 293 297 294 294 294 293 294 299 302 304 306 308 309 310 311 312 314 314 313 312 311 311 315 316 314
268 265 263 259 259 274 282 287 290 290 289 291 294 296 299 299 298 300 300 296 294 294 294 293 296 301 304 306 307 307 309 310 312 314 315 314 314 314 313 314 317 317 318 318
271 274 256 260 276 277 274 283 288 282 280 283 293 297 297 298 300 294 290 291 293 292 296 301 303 305 306 306 307 309 312 314 315 316 316 317 316 316 318 318 319 320 320 320